Location: Ammerl�gen
(47.2167°N, 9.6000°E)
Time: 16:35:00
(UTC+00:00)

NOAA 19 - Pass Details

Date: 10 December 2021
Orbit: 841 x 860 km, 99.2° (Epoch: 17 January)

Event Time Altitude Azimuth Distance (km) Brightness Sun altitude
Rises 19:03:48 0° 198° (SSW) 3,385 8.5 -35.0°
Reaches altitude 10° 19:06:32 10° 211° (SSW) 2,457 7.9 -35.4°
Maximum altitude 19:11:00 26° 266° (W) 1,622 7.1 -36.2°
Drops below altitude 10° 19:15:32 10° 322° (NW) 2,480 8.0 -37.0°
Sets 19:18:20 0° 335° (NNW) 3,424 8.7 -37.4°
